Regional Weather Roundup
Issued by NWS

Home | Current Version | Previous Version | Graphics & Text | Print | Product List | Glossary On
Versions: 1 2 3 4 5 6 7 8 9 10 11 12 13 14 15 16 17 18 19 20 21 22 23 24 25 26 27 28 29 30 31 32 33 34 35 36 37 38 39 40 41 42 43 44 45 46 47 48 49 50
000
ASUS43 KMPX 231710
RWRMN
WEATHER ROUNDUP FOR MINNESOTA
NATIONAL WEATHER SERVICE TWIN CITIES/CHANHASSEN MN
1200 PM CDT WED MAY 23 2018


NOTE: "FAIR" INDICATES FEW OR NO CLOUDS BELOW 12,000 FEET WITH NO
SIGNIFICANT WEATHER AND/OR OBSTRUCTIONS TO VISIBILITY. N/A MEANS
CURRENT SKY AND/OR WEATHER CONDITIONS ARE NOT AVAILABLE.

MNZ060>063-068>070-231800-
   Twin Cities Metro

CITY           SKY/WX    TMP DP  RH WIND       PRES   REMARKS
TWIN CITIES    CLOUDY    75  63  66 W6        30.13F
ST PAUL        FAIR      74  61  63 CALM      30.13F
CRYSTAL        FAIR      75  59  57 SW9G20    30.12S
BLAINE         CLOUDY    73  61  64 SW10      30.13S
LAKEVILLE      FAIR      73  63  68 W3        30.13S
EDEN PRAIRIE   FAIR      74  62  66 SW8       30.12S
SOUTH ST PAUL  FAIR      74  60  61 CALM      30.13F
LAKE ELMO      FAIR      73  63  68 SW7       30.15S
$$
MNZ001>005-007-008-013>017-022>024-027-028-231800-
   Northwest Minnesota

CITY           SKY/WX    TMP DP  RH WIND       PRES   REMARKS
BEMIDJI        FAIR      76  59  56 E9G17     30.07F
HALLOCK        FAIR      82  55  39 SE10      30.00F
ROSEAU         FAIR      81  57  44 SE9       30.05S
WARROAD        FAIR      70  61  73 NE9       30.07R
CROOKSTON      FAIR      82  59  44 SE8       30.00F
FOSSTON        FAIR      82  54  36 SE9       30.05S
DETROIT LAKES  FAIR      79  61  53 SE12      30.06R
MOORHEAD       FAIR      81  57  44 S24G32    30.01R
PARK RAPIDS    FAIR      77  60  55 SE8       30.06F
MAHNOMEN       FAIR      77  61  58 SE12      30.03S
$$
MNZ006-009>011-018-025>026-231800-
   North Central Minnesota

CITY           SKY/WX    TMP DP  RH WIND       PRES   REMARKS
BAUDETTE       FAIR      78  56  46 S7        30.07S
FLAG ISLAND    FAIR      68  55  64 SE3       30.06S
INTL FALLS     FAIR      78  53  41 S8        30.08F
WASKISH          N/A     77  57  50 S6        30.07F
BIG FORK       FAIR      77  55  47 S6        30.11R
LONGVILLE      FAIR      75  57  53 E5        30.09F
GRAND RAPIDS   PTSUNNY   74  56  53 S6        30.13
CRANE LAKE     FAIR      77  50  38 S7        30.11S
ORR            FAIR      79  50  36 SE13      30.09R
COOK           FAIR      75  54  46 S8        30.12R
WALKER         FAIR      72  59  63 E8        30.08F
$$
MNZ012-019>021-037-231800-
   Northeast Minnesota

CITY           SKY/WX    TMP DP  RH WIND       PRES   REMARKS
DULUTH         FAIR      75  55  49 VRB5      30.14R
ELY            FAIR      79  43  27 CALM      30.11S
HIBBING        FAIR      75  54  47 VRB6      30.12S
EVELETH        FAIR      75  54  46 S7        30.14R
DULUTH HARBOR  FAIR      64  59  82 NE6       30.13R
TWO HARBORS    FAIR      82  61  47 S7        30.12R
SILVER BAY     FAIR      79  54  41 S10G16    30.11S
GRAND MARAIS     N/A     49  39  68 NE6       30.15R
G MARAIS ARPRT FAIR      75  39  27 S8        30.15S
$$
MNZ029>031-032-039>041-046>048-054>057-064-231800-
   West Central Minnesota

CITY           SKY/WX    TMP DP  RH WIND       PRES   REMARKS
FERGUS FALLS   FAIR      73  61  64 S22G28    30.02R
WHEATON        CLOUDY    70  61  73 SE14G22   30.09R
MORRIS         CLOUDY    75  61  60 S16       30.07R
ALEXANDRIA     FAIR      74  63  68 S12       30.09S
ELBOW LAKE     RAIN      67  64  88 S17       30.08R
WADENA         FAIR      79  63  57 SE12      30.06R
GLENWOOD       FAIR      72  63  73 S13       30.10S
APPLETON       CLOUDY    72  61  68 SE9       30.07R
BENSON         CLOUDY    75  61  60 S13G22    30.08F
ORTONVILLE     DRIZZLE   66  63  88 S7        30.08R
MADISON        CLOUDY    72  63  73 SE18      30.06R
WILLMAR        FAIR      64  61  88 SW6       30.11S
$$
MNZ033>034-036-042>043-049>051-058-059-231800-
   Central Minnesota

CITY           SKY/WX    TMP DP  RH WIND       PRES   REMARKS
ST CLOUD       FAIR      71  61  70 S12       30.11F
SAUK CENTRE    FAIR      70  62  76 S12G17    30.10S
PAYNESVILLE    FAIR      66  63  88 SE7       30.11S
PINE RIVER     FAIR      73  57  56 E9        30.11S
BRAINERD       FAIR      77  61  57 VRB7      30.09S
STAPLES        FAIR      75  61  60 SE8       30.08R
LONG PRAIRIE   CLOUDY    70  61  73 SE16      30.11R
LITTLE FALLS   FAIR      72  61  68 S14       30.11R
LITCHFIELD     FAIR      66  63  88 S5        30.12F
BUFFALO        FAIR      71  59  66 SW5       30.14S
MAPLE LAKE     FAIR      72  62  72 S6        30.13F
HUTCHINSON     TSTM      65  62  89 S6        30.14F
$$
MNZ037-044-045-052-053-231800-
   East Central Minnesota

CITY           SKY/WX    TMP DP  RH WIND       PRES   REMARKS
PRINCETON      PTSUNNY   75  63  64 S8        30.13S
MORA           FAIR      73  59  60 S7        30.13S
CAMBRIDGE      PTSUNNY   75  61  60 S8        30.13S
RUSH CITY      PTSUNNY   74  62  65 S9        30.13R
MOOSE LAKE     FAIR      77  55  47 SE3       30.11S
HINCKLEY       FAIR      75  61  60 E7        30.12S
CLOQUET        PTSUNNY   75  54  46 CALM      30.14R
MCGREGOR       FAIR      77  59  53 SE5       30.12S
$$
MNZ071>073-080-081-089-090-097-098-231800-
   Southwest Minnesota

CITY           SKY/WX    TMP DP  RH WIND       PRES   REMARKS
MONTEVIDEO     PTSUNNY   66  63  88 S9        30.06R
GRANITE FALLS  CLOUDY    67  62  83 SE18G25   30.06F
CANBY          CLOUDY    73  63  72 E21       30.06S
MARSHALL       CLOUDY    65  62  90 SE22      30.06S
REDWOOD FALLS  TSTM      62  62 100 SW6       30.15R FOG
OLIVIA         RAIN      63  61  94 S9        30.12F
PIPESTONE      CLOUDY    72  61  68 SE15G26   30.09R
WINDOM         CLOUDY    70  52  52 NE8       30.13R
WORTHINGTON    CLOUDY    76  64  66 SE22      30.09S
JACKSON        CLOUDY    73  63  68 S15G21    30.11F
TRACY          CLOUDY    67  64  90 SE14G20   30.10F
SLAYTON        CLOUDY    65  61  85 NE13      30.12F
$$
MNZ065>067-074>077-082>085-091>093-231800-
   South Central Minnesota

CITY           SKY/WX    TMP DP  RH WIND       PRES   REMARKS
MANKATO        FAIR      68  64  87 N10       30.15R
NEW ULM        CLOUDY    66  61  82 N7        30.14S
ST JAMES       CLOUDY    70  63  78 N9        30.14R
FAIRMONT       CLOUDY    76  64  66 S20       30.11R
GLENCOE        CLOUDY    68  62  82 SW3       30.14S
FARIBAULT      FAIR      75  63  64 CALM      30.14R
OWATONNA       FAIR      75  63  64 S7        30.13R
WASECA         FAIR      73  63  68 SW6       30.14R
ALBERT LEA     FAIR      72  59  64 S10       30.13R
$$
MNZ078>079-086>088-094>096-231800-
   Southeast Minnesota

CITY           SKY/WX    TMP DP  RH WIND       PRES   REMARKS
ROCHESTER      FAIR      74  62  66 S12       30.14R
RED WING       FAIR      75  57  53 SW3       30.13R
STANTON        FAIR      75  60  60 W3        30.13R
DODGE CENTER   FAIR      75  61  60 S10       30.14R
WINONA         FAIR      73  63  68 E3        30.12S
AUSTIN         FAIR      72  63  73 S8        30.13R
PRESTON        FAIR      72  62  71 S12       30.16R
$$
ABBREVIATIONS USED IN REMARKS
   TC - TEMPERATURES IN CELSIUS
  WCI - WIND CHILL INDEX
   HX - HEAT INDEX
  VSB - VISIBILITY
$$




USA.gov is the U.S. government's official web portal to all federal, state and local government web resources and services.